Content
SEND FEEDBACK

Daily
Averages
Monthly
Summary
Canada

VANCOUVER, BRITISH COLUMBIA


Home > North America > Canada > British Columbia
Elevation: 2 meters     Latitude: 49 11N     Longitude: 123 10W

WEATHER
 
SELECT A DAY
Number of Records: 249,842;   Date Range: 5/15/97 - 9/17/14
 
SHARE

PRINT THIS DATA

[ ← Previous Day ]
WEATHER ALMANAC - 14 FEBRUARY, 2013
[ Next Day → ]
[ °F ]   °C
Weather ElementAverageHighLow
Temperature6.5 °C8 °C (1:15 pm)5 °C (3:55 am)
Dewpoint5.3 °C7 °C (7:55 pm)3 °C (12:55 am)
Humidity92.3 %100 % (3:55 am)81 % (12:55 am)
Barometer1033.5 hPa1034.9 hPa (8:35 pm)1031.5 hPa (12:35 am)
Wind Speed4.3 km/h13 km/h (12:15 pm)
Weather ElementAverage
Visibility11.9 km
Wind DirectionENE (75.1 °)

Weather ElementTotal
Precipitation---
Heating Degree Days11.8 (Base 18.3)
Averaged from 68 records on 14 February, 2013
WEATHER CONDITIONS BREAKOUT
WIND DIRECTION BREAKOUT
WEATHER BY HOUR - 14 FEBRUARY, 2013
[ °F ]   °C
Local TimeTemperatureDewpointHumidityBarometerVisibilityWind DirectionWind SpeedGust SpeedPrecipitationEventsConditions
12:35 AM6 °C4 °C87 %1031.5 hPa16.1 kmCalmScattered Clouds
12:55 AM6 °C3 °C81 %1031.5 hPa16.1 kmCalmPartly Cloudy
1:15 AM6 °C3 °C81 %1031.5 hPa16.1 kmCalmPartly Cloudy
1:35 AM6 °C4 °C87 %1031.5 hPa16.1 kmSouth (190°)9.3 km/hMostly Cloudy
1:55 AM6 °C4 °C87 %1031.5 hPa16.1 kmSouth (190°)9.3 km/hOvercast
2:15 AM6 °C4 °C87 %1031.5 hPa16.1 kmSouth (190°)9.3 km/hOvercast
2:35 AM7 °C4 °C81 %1031.5 hPa16.1 kmSouth (190°)9.3 km/hOvercast
2:55 AM7 °C4 °C81 %1031.8 hPa14.5 kmSSW (200°)11.1 km/hRainLight Rain
3:15 AM6 °C4 °C87 %1031.8 hPa11.3 kmSSW (200°)9.3 km/hRainLight Rain
3:35 AM6 °C5 °C93 %1031.8 hPa11.3 kmCalmRainLight Rain
3:55 AM5 °C5 °C100 %1032.2 hPa9.7 kmCalmRainLight Rain
4:15 AM5 °C5 °C100 %1032.5 hPa8 kmCalmRainRain
4:35 AM5 °C5 °C100 %1032.5 hPa4.8 kmCalmRainRain
4:55 AM5 °C5 °C100 %1032.8 hPa8 kmCalmRainRain
5:15 AM5 °C5 °C100 %1032.8 hPa8 kmCalmRainRain
5:35 AM5 °C5 °C100 %1032.8 hPa6.4 kmCalmRainLight Rain
5:55 AM5 °C5 °C100 %1032.5 hPa4.8 kmCalmRainLight Rain
6:15 AM5 °C5 °C100 %1032.5 hPa8 kmCalmRainLight Rain
6:35 AM5 °C5 °C100 %1032.8 hPa4.8 kmCalmRainLight Rain
6:55 AM5 °C5 °C100 %1032.8 hPa6.4 kmENE (70°)5.6 km/hRainLight Rain
7:15 AM5 °C5 °C100 %1033.2 hPa4.8 kmCalmRainLight Rain
7:35 AM5 °C5 °C100 %1033.2 hPa4.8 kmCalmRainLight Rain
8:15 AM6 °C5 °C93 %1033.2 hPa11.3 kmCalmScattered Clouds
8:35 AM5 °C5 °C100 %1033.2 hPa12.9 kmCalmScattered Clouds
8:55 AM6 °C5 °C93 %1033.2 hPa16.1 kmCalmMostly Cloudy
9:15 AM6 °C5 °C93 %1033.2 hPa16.1 kmCalmOvercast
9:35 AM7 °C5 °C87 %1033.5 hPa16.1 kmSouth (170°)5.6 km/hOvercast
9:55 AM7 °C5 °C87 %1033.5 hPa16.1 kmSouth (180°)9.3 km/hOvercast
10:15 AM7 °C5 °C87 %1033.2 hPa16.1 kmSSE (160°)7.4 km/hOvercast
10:35 AM7 °C5 °C87 %1033.5 hPa16.1 kmSouth (190°)9.3 km/hOvercast
10:55 AM7 °C5 °C87 %1033.9 hPa16.1 kmSouth (180°)5.6 km/hOvercast
11:15 AM7 °C5 °C87 %1033.9 hPa16.1 kmSouth (170°)7.4 km/hOvercast
11:35 AM7 °C6 °C93 %1033.9 hPa6.4 kmSouth (180°)9.3 km/hOvercast
12:15 PM7 °C6 °C93 %1033.9 hPa16.1 kmSouth (190°)13 km/hOvercast
12:35 PM7 °C5 °C87 %1033.9 hPa16.1 kmSouth (180°)11.1 km/hOvercast
12:55 PM7 °C5 °C87 %1033.9 hPa16.1 kmSouth (180°)13 km/hOvercast
1:15 PM8 °C6 °C87 %1033.9 hPa16.1 kmSouth (180°)9.3 km/hOvercast
1:35 PM8 °C6 °C87 %1033.9 hPa16.1 kmSouth (180°)11.1 km/hOvercast
1:55 PM7 °C5 °C87 %1033.9 hPa16.1 kmSouth (190°)11.1 km/hOvercast
2:15 PM8 °C6 °C87 %1034.2 hPa16.1 kmSouth (180°)9.3 km/hOvercast
2:35 PM7 °C6 °C93 %1034.2 hPa14.5 kmSouth (180°)9.3 km/hMostly Cloudy
2:55 PM7 °C6 °C93 %1034.2 hPa16.1 kmSouth (190°)11.1 km/hMostly Cloudy
3:15 PM7 °C6 °C93 %1034.2 hPa16.1 kmSouth (190°)11.1 km/hOvercast
3:35 PM7 °C6 °C93 %1034.2 hPa16.1 kmSouth (190°)9.3 km/hMostly Cloudy
3:55 PM7 °C6 °C93 %1034.2 hPa16.1 kmCalmOvercast
4:15 PM7 °C6 °C93 %1034.2 hPa11.3 kmCalmOvercast
4:35 PM7 °C6 °C93 %1034.2 hPa6.4 kmCalmOvercast
4:55 PM7 °C6 °C93 %1034.2 hPa8 kmCalmOvercast
5:15 PM7 °C6 °C93 %1034.2 hPa16.1 kmCalmOvercast
5:35 PM7 °C6 °C93 %1034.2 hPa16.1 kmCalmOvercast
5:55 PM7 °C6 °C93 %1034.2 hPa16.1 kmCalmOvercast
6:15 PM7 °C6 °C93 %1034.5 hPa16.1 kmCalmOvercast
6:35 PM7 °C6 °C93 %1034.5 hPa16.1 kmCalmMostly Cloudy
6:55 PM7 °C6 °C93 %1034.5 hPa16.1 kmCalmOvercast
7:15 PM7 °C6 °C93 %1034.5 hPa16.1 kmCalmOvercast
7:35 PM7 °C6 °C93 %1034.5 hPa16.1 kmCalmOvercast
7:55 PM7 °C7 °C100 %1034.5 hPa8 kmEast (80°)5.6 km/hOvercast
8:15 PM7 °C7 °C100 %1034.5 hPa4.8 kmENE (70°)7.4 km/hOvercast
8:35 PM7 °C6 °C93 %1034.9 hPa4 kmENE (70°)5.6 km/hOvercast
9:15 PM7 °C6 °C93 %1034.5 hPa4.8 kmNorthOvercast
9:35 PM7 °C6 °C93 %1034.5 hPa4 kmEast (80°)7.4 km/hOvercast
9:55 PM7 °C6 °C93 %1034.9 hPa4.8 kmENE (60°)5.6 km/hOvercast
10:15 PM7 °C6 °C93 %1034.9 hPa4.8 kmENE (60°)5.6 km/hOvercast
10:35 PM7 °C6 °C93 %1034.9 hPa6.4 kmCalmOvercast
10:55 PM7 °C6 °C93 %1034.9 hPa6.4 kmEast (80°)5.6 km/hOvercast
11:15 PM7 °C6 °C93 %1034.9 hPa6.4 kmENE (60°)5.6 km/hOvercast
11:35 PM7 °C6 °C93 %1034.9 hPa8 kmCalmMostly Cloudy
11:55 PM7 °C6 °C93 %1034.9 hPa8 kmENE (60°)5.6 km/hOvercast
Hourly data recorded from CZBB, located 0 kilometers away from Vancouver, British Columbia







STORIES FROM OUR PARTNERS